Onweer radar Meer informatie blitzortung!


Regen radar Meer informatie rain snow radar


Bezoek onze andere website:

Template documentation
and downloads

And another site



15 daagse weersverwachting Harstad (NO)

  • Overzicht
  • Per uur
  • 15 dagen
  • Extra
  • Vergelijk
  • Kaarten
  • Dagkaart
  • Meer »
  • Info
  • Statistieken
  • Directe link
    Temp 6h Neerslag Wind  
Midzomernacht Vandaag
20:00
12°
 
3
Midzomernacht Morgen
02:00
 
3
08:00
11°
 
2
14:00
15°
 
2
20:00
13°
 
3
Midzomernacht Dinsdag 18 Jun
02:00
 
2
08:00
10°
 
1
14:00
11°
 
2
20:00
11°
 
1
Midzomernacht Woensdag 19 Jun
02:00
 
1
08:00
10°
3.0 mm
3
14:00
13°
6.7 mm
3
Locatie info
Region: Troms
Latitude: 68.7973°N
Longitude: 16.5393°E
1 masl
Postcode: 9406
Temp/Neerslag /Baro Onweer/Dauwpunt
    Temp Baro 1h Neerslag Dauwpunt Wind UV Bewolking  
Midzomernacht Vandaag
20:00
12°
1012.3 hPa   4.7°
3
Windvlaag: 3.6 m/s
1%
21:00
11°
1012.0 hPa   4.6°
3
Windvlaag: 4.2 m/s
0%
22:00
11°
1011.6 hPa   4.7°
3
Windvlaag: 4.2 m/s
0%
23:00
11°
1011.3 hPa   4.0°
3
Windvlaag: 3.8 m/s
0%
Midzomernacht Morgen
00:00
10°
Voelt als: 8.5°
1011.0 hPa   3.7°
3
Windvlaag: 3.9 m/s
0%
01:00
Voelt als: 7.9°
1010.6 hPa   3.5°
3
Windvlaag: 3.8 m/s
0%
02:00
Voelt als: 7.6°
1010.4 hPa   3.3°
3
Windvlaag: 3.7 m/s
0%
03:00
Voelt als: 7.4°
1010.1 hPa   3.3°
3
Windvlaag: 3.3 m/s
0%
04:00
Voelt als: 7.6°
1009.5 hPa   3.3°
3
Windvlaag: 3.1 m/s
0%
05:00
10°
Voelt als: 8.3°
1009.2 hPa   3.5°
2
Windvlaag: 3.3 m/s
0%
06:00
10°
Voelt als: 8.9°
1008.9 hPa   3.4°
2
Windvlaag: 3.3 m/s
0%
07:00
10°
1008.9 hPa   3.4°
2
Windvlaag: 2.8 m/s
0%
08:00
11°
1008.7 hPa   3.7°
2
Windvlaag: 2.2 m/s
0%
09:00
12°
1008.7 hPa   3.8°
1
Windvlaag: 1.8 m/s
2%
10:00
13°
1008.8 hPa   4.3°
2
Windvlaag: 2.4 m/s
1%
11:00
13°
1008.8 hPa   4.2°
1
Windvlaag: 2.2 m/s
1%
12:00
14°
1008.8 hPa   5.2°
2
Windvlaag: 2.2 m/s
2%
13:00
15°
1008.8 hPa   5.5°
2
Windvlaag: 2.6 m/s
4%
14:00
15°
1008.9 hPa   6.4°
2
Windvlaag: 2.9 m/s
16%
15:00
14°
1009.1 hPa   6.2°
2
Windvlaag: 2.4 m/s
25%
16:00
15°
1009.2 hPa   7.3°
2
Windvlaag: 1 m/s
20%
17:00
15°
1009.3 hPa   7.2°
2
Windvlaag: 4 m/s
30%
18:00
14°
1009.4 hPa   6.9°
2
Windvlaag: 5 m/s
36%
19:00
14°
1009.5 hPa
11%
6.3°
2
Windvlaag: 5.5 m/s
32%
20:00
13°
1009.5 hPa   5.9°
3
Windvlaag: 5.2 m/s
38%
21:00
12°
1009.5 hPa
12%
5.7°
3
Windvlaag: 4.5 m/s
26%
22:00
11°
1009.6 hPa   5.7°
3
Windvlaag: 4.1 m/s
18%
23:00
10°
Voelt als: 8.8°
1009.7 hPa   5.5°
2
Windvlaag: 4 m/s
19%
Midzomernacht Dinsdag 18 Jun
00:00
Voelt als: 8.0°
1009.8 hPa
13%
5.6°
2
Windvlaag: 3.3 m/s
20%
01:00
Voelt als: 7.6°
1009.9 hPa
11%
5.9°
2
Windvlaag: 2.8 m/s
28%
02:00
Voelt als: 7.4°
1009.8 hPa
13%
6.0°
2
Windvlaag: 2.4 m/s
34%
03:00
Voelt als: 7.4°
1009.7 hPa
13%
5.7°
1
Windvlaag: 2.1 m/s
32%
04:00
Voelt als: 7.7°
1009.3 hPa
11%
5.6°
1
Windvlaag: 1.9 m/s
38%
05:00
Voelt als: 8.3°
1009.1 hPa
11%
6.0°
1
Windvlaag: 2.1 m/s
37%
06:00
Voelt als: 8.7°
1008.8 hPa
17%
6.3°
1
Windvlaag: 2.1 m/s
55%
07:00
1008.5 hPa
27%
6.3°
1
Windvlaag: 2.2 m/s
72%
08:00
10°
Voelt als: 9.5°
1008.2 hPa
19%
6.4°
1
Windvlaag: 2.7 m/s
71%
09:00
10°
1008.1 hPa
56%
6.7°
1
Windvlaag: 2.9 m/s
80%
10:00
11°
1008.0 hPa
14%
7.0°
2
Windvlaag: 2.9 m/s
83%
11:00
11°
1008.0 hPa
15%
7.3°
1
Windvlaag: 3 m/s
84%
12:00
11°
1007.9 hPa
14%
7.4°
2
Windvlaag: 3.2 m/s
78%
13:00
11°
1008.0 hPa
70%
7.6°
2
Windvlaag: 3.8 m/s
51%
14:00
11°
1007.9 hPa
76%
7.5°
2
Windvlaag: 4 m/s
54%
15:00
11°
1007.8 hPa
80%
7.3°
2
Windvlaag: 3.8 m/s
78%
16:00
11°
1007.7 hPa
78%
7.8°
2
Windvlaag: 3.2 m/s
85%
17:00
11°
1007.7 hPa
100%
7.9°
2
Windvlaag: 2.6 m/s
85%
18:00
11°
1007.4 hPa
100%
7.8°
1
Windvlaag: 2.5 m/s
57%
19:00
11°
1007.2 hPa
100%
7.1°
1
Windvlaag: 2.1 m/s
83%
20:00
11°
1006.8 hPa
99%
7.1°
1
Windvlaag: 1.9 m/s
74%
21:00
11°
1006.7 hPa
100%
7.2°
1
Windvlaag: 1.1 m/s
51%
22:00
10°
1006.7 hPa
95%
7.1°
1
Windvlaag: 1 m/s
43%
23:00
10°
Voelt als: 9.9°
1006.5 hPa
86%
7.1°
1
Windvlaag: 1.1 m/s
27%
Midzomernacht Woensdag 19 Jun
00:00
10°
Voelt als: 9.6°
1006.4 hPa
32%
8.0°
1
Windvlaag: 1.4 m/s
37%
01:00
Voelt als: 9.3°
1006.3 hPa
89%
8.0°
1
Windvlaag: 1.9 m/s
51%
02:00
Voelt als: 8.9°
1006.1 hPa
99%
7.7°
1
Windvlaag: 2 m/s
83%
03:00
Voelt als: 9.0°
1005.9 hPa
100%
7.5°
1
Windvlaag: 2.4 m/s
90%
04:00
10°
Voelt als: 9.4°
1005.8 hPa 1.1 mm
100%
7.2°
1
Windvlaag: 2.5 m/s
97%
05:00
10°
Voelt als: 9.4°
1005.7 hPa 0.7 mm
100%
6.4°
2
Windvlaag: 2.8 m/s
96%
06:00
10°
Voelt als: 9.5°
1005.7 hPa 0.5 mm
99%
6.8°
2
Windvlaag: 2.6 m/s
87%
07:00
10°
1005.7 hPa
94%
8.6°
2
Windvlaag: 2.5 m/s
93%
08:00
10°
1005.9 hPa 0.8 mm
98%
8.8°
3
Windvlaag: 4.8 m/s
91%
09:00
11°
1006.2 hPa 1.3 mm
100%
8.5°
3
Windvlaag: 4.1 m/s
98%
10:00
11°
1006.5 hPa 1.3 mm
100%
8.3°
3
Windvlaag: 3.8 m/s
88%
11:00
11°
1006.7 hPa 0.8 mm
100%
8.6°
3
Windvlaag: 3.8 m/s
81%
12:00
12°
1007.0 hPa 1.0 mm
99%
8.9°
3
Windvlaag: 3.5 m/s
90%
13:00
12°
1007.4 hPa 1.2 mm
96%
9.1°
3
Windvlaag: 3 m/s
82%
14:00
13°
1007.6 hPa 1.0 mm
97%
9.3°
3
Windvlaag: 1.4 m/s
81%
15:00
13°
1008.2 hPa 1.3 mm
95%
9.3°
2
Windvlaag: 2.9 m/s
72%
16:00
13°
1008.4 hPa 1.4 mm
100%
9.2°
3
Windvlaag: 2.4 m/s
69%
17:00
12°
1008.6 hPa 1.8 mm
95%
9.1°
3
Windvlaag: 2.9 m/s
76%
18:00
12°
1008.8 hPa 2.1 mm
99%
9.0°
3
Windvlaag: 3.2 m/s
70%
19:00
12°
1009.1 hPa 2.7 mm
99%
8.7°
2
Windvlaag: 2.8 m/s
66%
Temp/Neerslag /Baro Onweer/Dauwpunt
    Temp Baro Neerslag Dauwpunt Wind Bewolking  
Midzomernacht Vandaag
20:00
12°
1012.3 hPa   4.7°
3
1%
23:00
11°
1011.3 hPa   4.0°
3
0%
Midzomernacht Morgen
02:00
Voelt als: 7.6°
1010.4 hPa   3.3°
3
0%
05:00
10°
Voelt als: 8.3°
1009.2 hPa   3.5°
2
0%
08:00
11°
1008.7 hPa   3.7°
2
0%
11:00
13°
1008.8 hPa   4.2°
1
1%
14:00
15°
1008.9 hPa   6.4°
2
16%
17:00
15°
1009.3 hPa   7.2°
2
30%
20:00
13°
1009.5 hPa   5.9°
3
38%
23:00
10°
Voelt als: 8.8°
1009.7 hPa   5.5°
2
19%
Midzomernacht Dinsdag 18 Jun
02:00
Voelt als: 7.4°
1009.8 hPa   6.0°
2
34%
05:00
Voelt als: 8.3°
1009.1 hPa   6.0°
1
37%
08:00
10°
Voelt als: 9.5°
1008.2 hPa   6.4°
1
71%
11:00
11°
1008.0 hPa   7.3°
1
84%
14:00
11°
1007.9 hPa   7.5°
2
54%
17:00
11°
1007.7 hPa   7.9°
2
85%
20:00
11°
1006.8 hPa   7.1°
1
74%
23:00
10°
Voelt als: 9.9°
1006.5 hPa   7.1°
1
27%
Midzomernacht Woensdag 19 Jun
02:00
Voelt als: 8.9°
1006.1 hPa   7.7°
1
83%
05:00
10°
Voelt als: 9.4°
1005.7 hPa 1.8 mm 6.4°
2
96%
08:00
10°
1005.9 hPa 1.2 mm 8.8°
3
91%
11:00
11°
1006.7 hPa 3.5 mm 8.6°
3
81%
14:00
13°
1007.6 hPa 3.2 mm 9.3°
3
81%
17:00
12°
1008.6 hPa 4.5 mm 9.1°
3
76%
20:00
12°
1009.3 hPa 8.3 mm 8.5°
2
67%
23:00
11°
1010.8 hPa 7.3 mm 8.7°
2
75%
Midzomernacht Donderdag 20 Jun
02:00
10°
Voelt als: 9.3°
1010.9 hPa 7.4 mm 8.5°
2
78%
05:00
11°
1010.6 hPa 7.6 mm 8.7°
2
76%
08:00
12°
1010.1 hPa 8.0 mm 8.8°
2
73%
11:00
14°
1009.1 hPa 8.1 mm 9.0°
2
79%
14:00
16°
1007.9 hPa 8.1 mm 8.9°
3
85%
17:00
15°
1006.6 hPa 8.1 mm 9.9°
2
87%
20:00
15°
1005.2 hPa 8.2 mm 10.8°
2
89%
23:00
13°
1004.8 hPa 8.2 mm 10.4°
2
89%
Midzomernacht Vrijdag 21 Jun
02:00
11°
1004.3 hPa 8.4 mm 9.9°
2
89%
05:00
12°
1003.9 hPa 10.0 mm 10.2°
2
87%
08:00
13°
1003.6 hPa 10.7 mm 10.3°
2
86%
11:00
14°
1004.7 hPa 11.1 mm 10.6°
3
86%
14:00
15°
1006.0 hPa 11.9 mm 10.8°
3
85%
17:00
14°
1006.2 hPa 12.0 mm 10.7°
3
84%
20:00
14°
1006.5 hPa 12.1 mm 10.6°
3
83%
23:00
13°
1006.2 hPa 12.1 mm 10.6°
3
88%
Midzomernacht Zaterdag 22 Jun
02:00
12°
1005.8 hPa 13.8 mm 10.5°
2
92%
05:00
11°
1005.4 hPa 15.1 mm 10.3°
2
92%
08:00
11°
1005.0 hPa 15.9 mm 10.1°
3
92%
11:00
12°
1004.1 hPa 19.5 mm 10.5°
3
92%
14:00
12°
1003.2 hPa 21.3 mm 10.8°
4
92%
17:00
11°
1003.8 hPa 21.9 mm 10.3°
4
92%
20:00
11°
1004.4 hPa 22.1 mm 9.8°
4
92%
23:00
10°
Voelt als: 7.8°
1005.3 hPa 22.6 mm 9.1°
4
92%
Midzomernacht Zondag 23 Jun
02:00
Voelt als: 6.6°
1006.2 hPa 25.2 mm 8.3°
4
92%
05:00
Voelt als: 6.5°
1007.7 hPa 28.1 mm 7.9°
4
92%
08:00
Voelt als: 6.3°
1009.2 hPa 29.7 mm 7.4°
4
92%
11:00
Voelt als: 6.7°
1011.1 hPa 30.6 mm 7.4°
5
92%
14:00
10°
Voelt als: 7.0°
1013.1 hPa 31.2 mm 7.3°
5
92%
17:00
Voelt als: 6.9°
1014.1 hPa   7.3°
5
92%
20:00
Voelt als: 6.8°
1015.1 hPa 63.4 mm 7.5°
5
92%
Midzomernacht Maandag 24 Jun
02:00
Voelt als: 6.2°
1021.6 hPa 64.8 mm 6.5°
3
90%
08:00
Voelt als: 7.2°
1022.1 hPa 66.7 mm 5.7°
3
91%
14:00
11°
1023.9 hPa 67.6 mm 5.6°
3
92%
20:00
11°
1024.7 hPa 68.1 mm 6.6°
3
85%
Midzomernacht Dinsdag 25 Jun
02:00
Voelt als: 6.8°
1025.0 hPa 68.1 mm 6.2°
3
84%
08:00
10°
1023.9 hPa 68.1 mm 6.3°
3
87%
14:00
13°
1024.5 hPa 68.1 mm 7.0°
3
91%
20:00
12°
1023.2 hPa 69.1 mm 7.7°
3
85%
Midzomernacht Woensdag 26 Jun
02:00
10°
1009.5 hPa 70.7 mm 9.2°
1
1%
08:00
11°
1006.9 hPa 72.0 mm 9.7°
0
1%
14:00
13°
1015.9 hPa 0.6 mm 7.0°
2
52%
20:00
12°
1015.0 hPa 0.7 mm 7.1°
2
52%
Midzomernacht Donderdag 27 Jun
02:00
10°
Voelt als: 9.6°
1014.5 hPa 1.0 mm 7.0°
1
58%
08:00
10°
1013.5 hPa 0.4 mm 6.6°
1
56%
14:00
12°
1013.2 hPa 0.5 mm 6.8°
2
55%
20:00
11°
1012.7 hPa 0.4 mm 6.6°
2
54%
Midzomernacht Vrijdag 28 Jun
02:00
Voelt als: 9.0°
1012.4 hPa 0.3 mm 6.5°
1
46%
08:00
10°
1011.1 hPa 0.5 mm 6.1°
1
53%
14:00
12°
1010.6 hPa 0.7 mm 6.2°
3
53%
20:00
11°
1010.3 hPa 0.6 mm 6.0°
3
52%
Midzomernacht Zaterdag 29 Jun
02:00
Voelt als: 8.7°
1010.4 hPa 0.5 mm 6.2°
1
52%
08:00
10°
1009.6 hPa 0.9 mm 6.1°
1
51%
14:00
12°
1009.6 hPa 0.6 mm 6.1°
3
54%
20:00
11°
1009.8 hPa 0.8 mm 6.2°
2
53%
Midzomernacht Zondag 30 Jun
02:00
Voelt als: 9.0°
1010.6 hPa 0.6 mm 6.3°
1
46%
08:00
11°
1010.5 hPa 0.5 mm 6.2°
1
49%
14:00
13°
1010.6 hPa 0.3 mm 6.7°
2
50%
20:00
12°
1010.6 hPa 0.5 mm 6.8°
2
45%
Midzomernacht Maandag 01 Jul
02:00
10°
1010.7 hPa 0.4 mm 7.0°
1
38%
08:00
11°
1009.9 hPa 0.9 mm 7.4°
1
47%
14:00
13°
1010.0 hPa 1.2 mm 7.5°
2
45%
  CAPE Lifted Index Hail Supercell Tornado SRH 3km CL BTM PRES CL TOP PRES Swiss DWD icon SMHI TS
Midzomernacht Vandaag
20:00 0 J/kg 8.5 K 0 % 0 % 0 % 0 m²/s² 0 0 10.75 0
21:00 0 J/kg 8.9 K 0 % 0 % 0 % 0 m²/s² 0 0 11.15 0
22:00 0 J/kg 9.1 K 0 % 0 % 0 % 0 m²/s² 0 0 11.41 0
23:00 0 J/kg 9.5 K 0 % 0 % 0 % 0 m²/s² 0 0 12.02 0
Midzomernacht Morgen
00:00 0 J/kg 10.0 K 0 % 0 % 0 % 0 m²/s² 0 0 12.82 0
01:00 0 J/kg 10.3 K 0 % 0 % 0 % 0 m²/s² 0 0 13.21 0
02:00 0 J/kg 9.9 K 0 % 0 % 0 % 0 m²/s² 0 0 12.96 0
03:00 0 J/kg 8.5 K 0 % 0 % 0 % 0 m²/s² 0 0 11.74 0
04:00 0 J/kg 7.6 K 0 % 0 % 0 % 0 m²/s² 0 0 10.84 0
05:00 0 J/kg 7.3 K 0 % 0 % 0 % 0 m²/s² 0 0 10.45 0
06:00 0 J/kg 7.2 K 0 % 0 % 0 % 0 m²/s² 0 0 10.35 0
07:00 0 J/kg 7.3 K 0 % 0 % 0 % 0 m²/s² 0 0 10.51 0
08:00 0 J/kg 7.2 K 0 % 0 % 0 % 0 m²/s² 0 0 10.5 1
09:00 0 J/kg 7.3 K 0 % 0 % 0 % 0 m²/s² 0 0 10.69 1
10:00 0 J/kg 7.6 K 0 % 0 % 0 % 0 m²/s² 0 0 10.99 0
11:00 0 J/kg 7.0 K 0 % 0 % 0 % 0 m²/s² 0 0 10.57 1
12:00 0 J/kg 6.1 K 0 % 0 % 0 % 0 m²/s² 0 0 9.67 1
13:00 0 J/kg 5.9 K 0 % 0 % 0 % 0 m²/s² 0 0 9.47 0
14:00 0 J/kg 5.8 K 0 % 0 % 0 % 0 m²/s² 0 0 9.46 0
15:00 0 J/kg 5.8 K 0 % 0 % 0 % 0 m²/s² 0 0 9.58 0
16:00 0 J/kg 5.6 K 0 % 0 % 0 % 0 m²/s² 0 0 9.26 1
17:00 1 J/kg 5.5 K 0 % 0 % 0 % 0 m²/s² 0 0 8.8 2
18:00 1 J/kg 5.7 K 0 % 0 % 0 % 0 m²/s² 0 0 8.67 2
19:00 0 J/kg 6.5 K 0 % 0 % 0 % 0 m²/s² 0 0 9.38 2
20:00 0 J/kg 7.1 K 0 % 0 % 0 % 0 m²/s² 0 0 9.83 3
21:00 0 J/kg 7.4 K 0 % 0 % 0 % 0 m²/s² 0 0 10.13 3
22:00 0 J/kg 8.0 K 0 % 0 % 0 % 0 m²/s² 0 0 10.64 3
23:00 0 J/kg 8.6 K 0 % 0 % 0 % 0 m²/s² 0 0 11.09 3
Midzomernacht Dinsdag 18 Jun
00:00 1 J/kg 8.5 K 0 % 0 % 0 % 0 m²/s² 0 0 10.51 1
01:00 0 J/kg 8.1 K 0 % 0 % 0 % 0 m²/s² 0 0 9.69 2
02:00 1 J/kg 8.1 K 0 % 0 % 0 % 0 m²/s² 0 0 9.3 3
03:00 1 J/kg 8.7 K 0 % 0 % 0 % 0 m²/s² 0 0 9.42 2
04:00 1 J/kg 9.6 K 0 % 0 % 0 % 0 m²/s² 0 0 10.11 2
05:00 1 J/kg 10.2 K 0 % 0 % 0 % 0 m²/s² 0 0 10.53 2
06:00 1 J/kg 9.2 K 0 % 0 % 0 % 0 m²/s² 0 0 9.74 3
07:00 0 J/kg 10.0 K 0 % 0 % 0 % 0 m²/s² 0 0 12.01 3
08:00 0 J/kg 9.1 K 0 % 0 % 0 % 0 m²/s² 0 0 13.21 3
09:00 1 J/kg 7.1 K 0 % 0 % 0 % 0 m²/s² 0 0 12.02 3
10:00 2 J/kg 5.3 K 0 % 0 % 0 % 0 m²/s² 0 0 9.2 3
11:00 2 J/kg 5.5 K 0 % 0 % 0 % 0 m²/s² 0 0 7.36 3
12:00 1 J/kg 5.4 K 0 % 0 % 0 % 0 m²/s² 0 0 5.64 3
13:00 2 J/kg 4.4 K 0 % 0 % 0 % 0 m²/s² 0 0 4.94 61
14:00 0 J/kg 3.4 K 0 % 0 % 0 % 0 m²/s² 0 0 5.11 61
15:00 0 J/kg 2.7 K 0 % 0 % 0 % 0 m²/s² 0 0 3.33 61
16:00 0 J/kg 2.1 K 0 % 0 % 0 % 0 m²/s² 0 0 4.53 61
17:00 0 J/kg 1.3 K 0 % 0 % 0 % 0 m²/s² 0 0 4.15 61
18:00 0 J/kg 0.7 K 0 % 0 % 0 % 0 m²/s² 0 0 3.49 61
19:00 0 J/kg 0.9 K 0 % 0 % 0 % 0 m²/s² 0 0 3.3 61
20:00 0 J/kg 1.8 K 0 % 0 % 0 % 0 m²/s² 0 0 4.2 61
21:00 0 J/kg 1.7 K 0 % 0 % 0 % 0 m²/s² 0 0 3.89 61
22:00 0 J/kg 0.7 K 0 % 0 % 0 % 0 m²/s² 0 0 2.83 61
23:00 0 J/kg 0.0 K 0 % 0 % 0 % 0 m²/s² 0 0 1.53 45
Midzomernacht Woensdag 19 Jun
00:00 0 J/kg 0.2 K 0 % 0 % 0 % 0 m²/s² 0 0 0.89 45
01:00 0 J/kg 1.0 K 0 % 0 % 0 % 0 m²/s² 0 0 1.54 45
02:00 3 J/kg 0.8 K 0 % 0 % 0 % 0 m²/s² 0 0 1.97 3
03:00 51 J/kg 0.7 K 0 % 0 % 0 % 0 m²/s² 0 0 2.35 61
04:00 84 J/kg 0.8 K 0 % 0 % 0 % 0 m²/s² 0 0 2.33 61
05:00 91 J/kg 1.3 K 0 % 0 % 0 % 0 m²/s² 0 0 2.56 61
06:00 101 J/kg 1.5 K 0 % 0 % 0 % 0 m²/s² 0 0 2.43 80
07:00 102 J/kg 1.5 K 0 % 0 % 0 % 0 m²/s² 0 0 2.1 2
08:00 40 J/kg 2.4 K 0 % 0 % 0 % 0 m²/s² 0 0 2.85 3
09:00 24 J/kg 2.7 K 0 % 0 % 0 % 0 m²/s² 0 0 3.06 3
10:00 47 J/kg 2.2 K 0 % 0 % 0 % 0 m²/s² 0 0 2.8 80
11:00 54 J/kg 2.1 K 0 % 0 % 0 % 0 m²/s² 0 0 3.12 80
12:00 37 J/kg 2.3 K 0 % 0 % 0 % 0 m²/s² 0 0 3.26 80
13:00 45 J/kg 2.1 K 0 % 0 % 0 % 0 m²/s² 0 0 3.45 80
14:00 36 J/kg 1.7 K 0 % 0 % 0 % 0 m²/s² 0 0 3.38 80
15:00 38 J/kg 1.2 K 0 % 0 % 0 % 0 m²/s² 0 0 2.13 80
16:00 16 J/kg 0.8 K 0 % 0 % 0 % 0 m²/s² 0 0 2.06 80
17:00 1 J/kg 0.1 K 0 % 0 % 0 % 0 m²/s² 0 0 0.49 80
18:00 0 J/kg -0.5 K 0 % 0 % 0 % 0 m²/s² 0 0 0.37 80
19:00 0 J/kg -0.3 K 0 % 0 % 0 % 0 m²/s² 0 0 0.39 80
Temp Baro Wind Neerslag
  EWN Forecast EWN WRFDA DWD ICON FMI HIRLAM MET Norway GFS
Midzomernacht Vandaag
20:00 11.9° 1012.3 hPa 2.7 m/s 0.0 mm 13.0° 1009.7 hPa 3.9 m/s 0.0 mm 8.8° 1013.0 hPa 1.6 m/s -2.0 mm 12.8° 1012.5 hPa 3.5 m/s 0.0 mm 12.4° 1012.1 hPa 2.7 m/s 0.0 mm 9.6° 1011.8 hPa 1.4 m/s
23:00 10.5° 1011.3 hPa 2.9 m/s 0.0 mm 12.1° 1008.6 hPa 5.4 m/s 0.0 mm 8.3° 1011.7 hPa 1.0 m/s 0.0 mm 11.3° 1011.5 hPa 3.9 m/s 0.0 mm 10.8° 1011.0 hPa 2.9 m/s 0.0 mm 9.2° 1010.8 hPa 1.0 m/s
Midzomernacht Morgen
02:00 9.0° 1010.4 hPa 2.5 m/s 0.0 mm 9.6° 1007.4 hPa 4.8 m/s 0.0 mm 7.7° 1011.0 hPa 0.8 m/s 0.0 mm 9.2° 1010.6 hPa 3.5 m/s 0.0 mm 9.8° 1010.1 hPa 2.4 m/s 0.0 mm 8.6° 1010.1 hPa 0.9 m/s
05:00 9.5° 1009.2 hPa 2.4 m/s 0.0 mm 10.7° 1006.0 hPa 4.1 m/s 0.0 mm 8.4° 1010.6 hPa 0.6 m/s 0.0 mm 9.8° 1009.1 hPa 2.5 m/s 0.0 mm 9.8° 1009.2 hPa 2.7 m/s 0.0 mm 9.6° 1009.6 hPa 0.8 m/s
08:00 11.1° 1008.7 hPa 1.6 m/s 0.0 mm 12.8° 1005.3 hPa 1.4 m/s 0.0 mm 10.2° 1009.4 hPa 0.6 m/s 0.0 mm 12.4° 1008.3 hPa 1.8 m/s 0.0 mm 11.1° 1008.8 hPa 1.7 m/s 0.0 mm 12.5° 1009.0 hPa 1.7 m/s
11:00 13.2° 1008.8 hPa 1.5 m/s 0.0 mm 14.9° 1005.8 hPa 2.0 m/s 0.0 mm 12.4° 1009.5 hPa 1.4 m/s 0.0 mm 14.9° 1008.7 hPa 1.3 m/s 0.0 mm 13.2° 1008.8 hPa 1.4 m/s 0.0 mm 13.5° 1009.5 hPa 4.1 m/s
14:00 14.9° 1008.9 hPa 2.1 m/s 0.0 mm 15.6° 1005.5 hPa 3.2 m/s 0.0 mm 13.6° 1009.6 hPa 2.9 m/s 0.0 mm 16.4° 1008.3 hPa 1.4 m/s 0.0 mm 15.1° 1009.0 hPa 2.0 m/s 0.0 mm 13.4° 1009.2 hPa 4.0 m/s
17:00 15.0° 1009.3 hPa 2.4 m/s 0.0 mm 15.0° 1006.2 hPa 2.9 m/s 0.0 mm 13.2° 1009.7 hPa 3.6 m/s 0.0 mm 16.4° 1008.0 hPa 1.6 m/s 0.0 mm 15.5° 1009.5 hPa 2.5 m/s 0.0 mm 12.2° 1009.6 hPa 3.8 m/s
20:00 12.8° 1009.5 hPa 2.6 m/s 0.0 mm 13.5° 1006.0 hPa 4.4 m/s 0.0 mm 11.6° 1009.9 hPa 2.9 m/s 0.0 mm 15.1° 1007.5 hPa 1.5 m/s 0.0 mm 12.7° 1009.9 hPa 2.5 m/s 0.0 mm 10.3° 1008.8 hPa 2.7 m/s
23:00 10.0° 1009.7 hPa 2.4 m/s 0.0 mm 9.9° 1006.9 hPa 5.4 m/s 0.0 mm 10.2° 1009.6 hPa 3.1 m/s 0.0 mm 12.2° 1007.2 hPa 2.4 m/s 0.0 mm 9.6° 1010.5 hPa 1.9 m/s 0.0 mm 8.8° 1009.6 hPa 2.3 m/s
Midzomernacht Dinsdag 18 Jun
02:00 8.1° 1009.8 hPa 1.6 m/s 0.0 mm 8.5° 1006.7 hPa 5.3 m/s 0.1 mm 8.9° 1009.8 hPa 1.8 m/s 0.0 mm 9.0° 1007.1 hPa 1.5 m/s 0.0 mm 7.1° 1010.7 hPa 1.2 m/s 0.0 mm 8.4° 1009.2 hPa 1.8 m/s
05:00 8.3° 1009.1 hPa 1.1 m/s 0.0 mm 8.1° 1006.6 hPa 4.7 m/s 0.1 mm 9.3° 1008.8 hPa 0.9 m/s 0.0 mm 9.4° 1006.1 hPa 0.7 m/s 0.0 mm 8.0° 1010.1 hPa 1.1 m/s 0.0 mm 8.9° 1008.9 hPa 2.1 m/s
08:00 9.7° 1008.2 hPa 1.3 m/s 0.0 mm 9.9° 1005.7 hPa 2.8 m/s 0.1 mm 10.2° 1007.6 hPa 1.1 m/s 0.0 mm 11.4° 1005.1 hPa 1.3 m/s 0.0 mm 8.8° 1009.5 hPa 1.5 m/s 0.0 mm 9.9° 1008.0 hPa 0.9 m/s
11:00 10.9° 1008.0 hPa 1.5 m/s 0.0 mm 11.6° 1005.2 hPa 1.7 m/s 0.1 mm 10.9° 1007.5 hPa 1.4 m/s 0.0 mm 12.8° 1005.2 hPa 2.6 m/s 0.0 mm 10.4° 1009.1 hPa 1.4 m/s 0.0 mm 9.6° 1007.9 hPa 0.3 m/s
14:00 11.4° 1007.9 hPa 1.9 m/s 0.0 mm 11.4° 1004.6 hPa 3.2 m/s 0.1 mm 10.4° 1007.7 hPa 1.3 m/s 0.2 mm 11.6° 1006.2 hPa 1.8 m/s 0.0 mm 12.2° 1008.7 hPa 2.6 m/s 0.0 mm 10.0° 1007.3 hPa 2.2 m/s
17:00 11.1° 1007.7 hPa 1.6 m/s 0.0 mm 11.3° 1004.5 hPa 3.4 m/s 0.2 mm 9.5° 1007.5 hPa 1.0 m/s 0.7 mm 11.6° 1008.0 hPa 1.6 m/s 0.0 mm 9.3° 1007.6 hPa 2.0 m/s
20:00 10.8° 1006.8 hPa 0.9 m/s 0.0 mm 11.0° 1003.5 hPa 3.3 m/s 0.3 mm 9.0° 1006.7 hPa 0.6 m/s 1.4 mm 11.4° 1007.1 hPa 0.6 m/s 0.0 mm 8.9° 1007.2 hPa 1.2 m/s
23:00 9.9° 1006.5 hPa 0.7 m/s 0.0 mm 9.8° 1004.2 hPa 2.5 m/s 0.3 mm 9.0° 1006.0 hPa 0.5 m/s 0.2 mm 10.7° 1006.8 hPa 0.6 m/s 0.0 mm 9.1° 1007.9 hPa 1.6 m/s
Midzomernacht Woensdag 19 Jun
02:00 9.2° 1006.1 hPa 1.3 m/s 0.0 mm 9.9° 1003.4 hPa 2.1 m/s 0.9 mm 9.1° 1005.0 hPa 0.8 m/s 0.0 mm 9.2° 1006.6 hPa 1.5 m/s 0.0 mm 9.4° 1007.2 hPa 2.5 m/s
05:00 9.9° 1005.7 hPa 1.7 m/s 1.8 mm 11.3° 1003.4 hPa 4.3 m/s 2.6 mm 9.3° 1005.2 hPa 1.5 m/s 4.3 mm 10.0° 1006.6 hPa 1.5 m/s 0.0 mm 9.6° 1007.0 hPa 2.5 m/s
08:00 10.4° 1005.9 hPa 2.9 m/s 1.2 mm 10.8° 1003.9 hPa 6.2 m/s 4.9 mm 10.9° 1005.6 hPa 2.4 m/s 0.5 mm 8.8° 1007.4 hPa 2.8 m/s 0.9 mm 11.1° 1006.8 hPa 3.1 m/s
11:00 11.2° 1006.7 hPa 2.9 m/s 3.5 mm 12.1° 1005.1 hPa 4.1 m/s 9.0 mm 11.5° 1006.6 hPa 1.7 m/s 0.9 mm 11.1° 1008.1 hPa 3.1 m/s 12.4° 1007.7 hPa 2.2 m/s
14:00 13.0° 1007.6 hPa 3.0 m/s 3.2 mm 13.4° 1005.4 hPa 3.3 m/s 9.2 mm 12.0° 1007.5 hPa 1.6 m/s 1.3 mm 13.4° 1008.8 hPa 3.5 m/s 11.3° 1007.7 hPa 0.7 m/s
17:00 12.3° 1008.6 hPa 2.7 m/s 4.5 mm 10.6° 1006.2 hPa 2.8 m/s 11.3 mm 12.1° 1007.9 hPa 1.1 m/s 1.1 mm 12.9° 1009.7 hPa 3.1 m/s 10.8° 1008.6 hPa 2.9 m/s
20:00 11.6° 1009.3 hPa 2.3 m/s 8.3 mm 9.9° 1006.2 hPa 2.4 m/s 21.4 mm 11.1° 1008.4 hPa 0.9 m/s 1.8 mm 12.4° 1010.6 hPa 2.7 m/s 11.7° 1008.8 hPa 4.1 m/s
23:00 10.7° 1010.8 hPa 2.1 m/s 7.3 mm 10.7° 1010.9 hPa 2.0 m/s 10.4° 1010.2 hPa 3.6 m/s 7.3 mm
Midzomernacht Donderdag 20 Jun
02:00 9.9° 1010.9 hPa 1.7 m/s 7.4 mm 9.9° 1011.0 hPa 1.6 m/s 9.5° 1010.1 hPa 2.9 m/s 7.4 mm
05:00 10.9° 1010.6 hPa 2.0 m/s 7.6 mm 10.9° 1010.5 hPa 1.9 m/s 10.4° 1010.6 hPa 2.8 m/s 7.6 mm
08:00 11.9° 1010.1 hPa 2.2 m/s 8.0 mm 11.9° 1010.1 hPa 2.2 m/s 11.6° 1010.0 hPa 2.4 m/s 8.0 mm
11:00 13.9° 1009.1 hPa 2.3 m/s 8.1 mm 14.0° 1009.0 hPa 2.4 m/s 13.2° 1009.7 hPa 1.4 m/s 8.1 mm
14:00 16.0° 1007.9 hPa 2.7 m/s 8.1 mm 16.1° 1007.9 hPa 2.6 m/s 14.5° 1008.2 hPa 3.4 m/s 8.1 mm
17:00 15.3° 1006.6 hPa 2.4 m/s 8.1 mm 15.4° 1006.5 hPa 2.5 m/s 13.7° 1007.1 hPa 2.3 m/s 8.1 mm
20:00 14.5° 1005.2 hPa 2.3 m/s 8.2 mm 14.7° 1005.2 hPa 2.3 m/s 12.5° 1005.4 hPa 2.0 m/s 8.2 mm
23:00 13.0° 1004.8 hPa 1.9 m/s 8.2 mm 13.1° 1004.8 hPa 1.9 m/s 12.8° 1004.5 hPa 1.4 m/s 8.2 mm
Midzomernacht Vrijdag 21 Jun
02:00 11.5° 1004.3 hPa 1.6 m/s 8.4 mm 11.4° 1004.4 hPa 1.6 m/s 12.1° 1003.2 hPa 1.3 m/s 8.4 mm
05:00 12.0° 1003.9 hPa 1.8 m/s 10.0 mm 12.0° 1004.0 hPa 1.8 m/s 11.5° 1002.5 hPa 2.0 m/s 10.0 mm
08:00 12.6° 1003.6 hPa 2.0 m/s 10.7 mm 12.6° 1003.7 hPa 2.0 m/s 12.1° 1002.1 hPa 1.8 m/s 10.7 mm
11:00 13.6° 1004.7 hPa 2.7 m/s 11.1 mm 13.7° 1004.9 hPa 2.7 m/s 12.9° 1003.0 hPa 2.3 m/s 11.1 mm
14:00 14.6° 1006.0 hPa 3.4 m/s 11.9 mm 14.8° 1006.1 hPa 3.4 m/s 12.0° 1004.4 hPa 3.8 m/s 11.9 mm
17:00 14.0° 1006.2 hPa 3.2 m/s 12.0 mm 14.2° 1006.3 hPa 3.2 m/s 11.6° 1005.6 hPa 3.4 m/s 12.0 mm
20:00 13.6° 1006.5 hPa 3.0 m/s 12.1 mm 13.7° 1006.5 hPa 3.0 m/s 12.3° 1006.2 hPa 2.8 m/s 12.1 mm
23:00 12.5° 1006.2 hPa 2.5 m/s 12.1 mm 12.6° 1006.1 hPa 2.5 m/s 10.9° 1007.0 hPa 2.7 m/s 12.1 mm
Midzomernacht Zaterdag 22 Jun
02:00 11.5° 1005.8 hPa 2.0 m/s 13.8 mm 11.6° 1005.7 hPa 2.0 m/s 10.5° 1007.3 hPa 2.2 m/s 13.8 mm
05:00 11.3° 1005.4 hPa 2.3 m/s 15.1 mm 11.4° 1005.2 hPa 2.4 m/s 10.4° 1007.5 hPa 1.7 m/s 15.1 mm
08:00 11.1° 1005.0 hPa 2.7 m/s 15.9 mm 11.2° 1004.8 hPa 2.8 m/s 10.0° 1007.5 hPa 2.0 m/s 15.9 mm
11:00 11.6° 1004.1 hPa 3.2 m/s 19.5 mm 11.8° 1003.8 hPa 3.3 m/s 9.4° 1007.8 hPa 1.2 m/s 19.5 mm
14:00 12.0° 1003.2 hPa 3.8 m/s 21.3 mm 12.3° 1002.7 hPa 3.9 m/s 9.1° 1008.5 hPa 2.3 m/s 21.3 mm
17:00 11.5° 1003.8 hPa 4.0 m/s 21.9 mm 11.7° 1003.4 hPa 4.2 m/s 8.8° 1008.7 hPa 1.8 m/s 21.9 mm
20:00 10.9° 1004.4 hPa 4.3 m/s 22.1 mm 11.1° 1004.0 hPa 4.5 m/s 8.9° 1008.9 hPa 2.3 m/s 22.1 mm
23:00 10.0° 1005.3 hPa 4.4 m/s 22.6 mm 10.1° 1004.9 hPa 4.5 m/s 8.7° 1009.3 hPa 2.8 m/s 22.6 mm
Midzomernacht Zondag 23 Jun
02:00 9.0° 1006.2 hPa 4.4 m/s 25.2 mm 9.1° 1005.8 hPa 4.5 m/s 8.3° 1011.0 hPa 2.9 m/s 25.2 mm
05:00 8.9° 1007.7 hPa 4.3 m/s 28.1 mm 8.9° 1007.3 hPa 4.5 m/s 8.4° 1012.1 hPa 2.0 m/s 28.1 mm
08:00 8.8° 1009.2 hPa 4.4 m/s 29.7 mm 8.8° 1008.8 hPa 4.6 m/s 8.8° 1014.1 hPa 2.1 m/s 29.7 mm
11:00 9.2° 1011.1 hPa 4.7 m/s 30.6 mm 9.2° 1010.7 hPa 4.9 m/s 9.2° 1016.0 hPa 2.4 m/s 30.6 mm
14:00 9.5° 1013.1 hPa 5.0 m/s 31.2 mm 9.5° 1012.6 hPa 5.2 m/s 10.0° 1018.2 hPa 2.8 m/s 31.2 mm
17:00 9.4° 1014.1 hPa 5.1 m/s 31.5 mm 9.4° 1013.6 hPa 5.2 m/s 9.9° 1019.4 hPa 4.2 m/s 31.5 mm
20:00 9.3° 1015.1 hPa 5.0 m/s 31.8 mm 9.3° 1014.6 hPa 5.1 m/s 9.7° 1020.6 hPa 3.4 m/s 31.8 mm
Midzomernacht Maandag 24 Jun
02:00 8.2° 1021.6 hPa 3.3 m/s 32.6 mm 8.2° 1021.5 hPa 3.3 m/s 8.7° 1022.5 hPa 3.7 m/s 32.6 mm
08:00 9.1° 1022.1 hPa 3.4 m/s 33.5 mm 9.1° 1022.0 hPa 3.4 m/s 9.5° 1022.7 hPa 3.8 m/s 33.5 mm
14:00 11.2° 1023.9 hPa 3.5 m/s 33.8 mm 11.0° 1024.0 hPa 3.6 m/s 12.8° 1022.2 hPa 2.0 m/s 33.8 mm
20:00 10.7° 1024.7 hPa 2.7 m/s 34.1 mm 10.6° 1025.0 hPa 2.9 m/s 12.0° 1021.0 hPa 1.0 m/s 34.1 mm
Midzomernacht Dinsdag 25 Jun
02:00 8.3° 1025.0 hPa 2.5 m/s 34.1 mm 8.2° 1025.4 hPa 2.6 m/s 9.5° 1020.0 hPa 1.8 m/s 34.1 mm
08:00 10.2° 1023.9 hPa 3.1 m/s 34.1 mm 10.2° 1024.5 hPa 3.2 m/s 10.6° 1017.4 hPa 2.1 m/s 34.1 mm
14:00 12.7° 1024.5 hPa 3.4 m/s 34.1 mm 12.7° 1025.4 hPa 3.4 m/s 12.6° 1015.1 hPa 3.5 m/s 34.1 mm
20:00 11.9° 1023.2 hPa 2.9 m/s 35.0 mm 12.0° 1024.2 hPa 2.9 m/s 11.2° 1012.5 hPa 2.7 m/s 35.0 mm
Midzomernacht Woensdag 26 Jun
02:00 10.3° 1009.5 hPa 0.7 m/s 35.3 mm 10.3° 1009.5 hPa 0.7 m/s 35.3 mm
08:00 10.6° 1006.9 hPa 0.5 m/s 36.2 mm 10.6° 1006.9 hPa 0.5 m/s 36.2 mm
14:00 12.6° 1015.9 hPa 2.3 m/s 0.6 mm
20:00 11.7° 1015.0 hPa 2.4 m/s 0.7 mm
Midzomernacht Donderdag 27 Jun
02:00 9.6° 1014.5 hPa 1.0 m/s 1.0 mm
08:00 10.3° 1013.5 hPa 1.4 m/s 0.4 mm
14:00 11.6° 1013.2 hPa 2.3 m/s 0.5 mm
20:00 11.0° 1012.7 hPa 2.0 m/s 0.4 mm
Midzomernacht Vrijdag 28 Jun
02:00 9.0° 1012.4 hPa 0.7 m/s 0.3 mm
08:00 10.3° 1011.1 hPa 1.0 m/s 0.5 mm
14:00 12.0° 1010.6 hPa 2.9 m/s 0.7 mm
20:00 11.0° 1010.3 hPa 2.8 m/s 0.6 mm
Midzomernacht Zaterdag 29 Jun
02:00 9.0° 1010.4 hPa 1.3 m/s 0.5 mm
08:00 10.1° 1009.6 hPa 1.0 m/s 0.9 mm
14:00 11.8° 1009.6 hPa 2.5 m/s 0.6 mm
20:00 11.0° 1009.8 hPa 2.4 m/s 0.8 mm
Midzomernacht Zondag 30 Jun
02:00 9.0° 1010.6 hPa 0.8 m/s 0.6 mm
08:00 10.6° 1010.5 hPa 0.8 m/s 0.5 mm
14:00 12.8° 1010.6 hPa 2.2 m/s 0.3 mm
20:00 12.1° 1010.6 hPa 2.5 m/s 0.5 mm
Midzomernacht Maandag 01 Jul
02:00 9.9° 1010.7 hPa 1.2 m/s 0.4 mm
08:00 11.2° 1009.9 hPa 0.7 m/s 0.9 mm
14:00 13.0° 1010.0 hPa 2.3 m/s 1.2 mm
FMI Hirlam - 7.5 km EWN WRFDA - 12 km DWD ICON - 7 km GFS - 25 km Basiskaart






























































Updatetijd (Europe/Amsterdam) Resolutie Lengte Stap
FMI Hirlam 19:00, 01:00, 07:00, 13:00 7.5 km 49h 1h
EWN WRFDA 16:15, 22:15, 04:15, 10:15 12 km 73h 1h
DWD ICON 18:00, 00:00, 06:00, 12:00 7 km 75h 1h
GFS 14:30, 20:30, 02:30, 08:30 25 km 237h 3h
30+ mm
25-30 mm
20-25 mm
15-20 mm
10-15 mm
6-10 mm
4-6 mm
2-4 mm
1-2 mm
0.5-1 mm
0.2-0.5 mm
0.1-0.2 mm
30+ mm
25-30 mm
20-25 mm
15-20 mm
10-15 mm
6-10 mm
4-6 mm
2-4 mm
1-2 mm
0.5-1 mm
0.2-0.5 mm
0.1-0.2 mm
Sneeuwval
Natte sneeuw
Hagel
Vorst
30+ mm
25-30 mm
20-25 mm
15-20 mm
10-15 mm
6-10 mm
4-6 mm
2-4 mm
1-2 mm
0.5-1 mm
0.2-0.5 mm
0.1-0.2 mm
Sneeuwval
Natte sneeuw
Hagel
Vorst
Onweer
50 mm
40 mm
30 mm
26 mm
22 mm
18 mm
14 mm
10 mm
9 mm
8 mm
7 mm
6 mm
5 mm
4.5 mm
4 mm
3.5 mm
3 mm
2.5 mm
2 mm
1.5 mm
1 mm
0.8 mm
0.6 mm
0.4 mm
0.2 mm
0.05 mm
35°
30°
25°
20°
15°
10°
-5°
-10°
-15°
-20°
-25°
-30°
-35°
33> m/s
29 m/s
25 m/s
21 m/s
17 m/s
14 m/s
11 m/s
8 m/s
5 m/s
3 m/s
0 m/s
2600 J/kg
2400 J/kg
2200 J/kg
2000 J/kg
1800 J/kg
1600 J/kg
1400 J/kg
1200 J/kg
1000 J/kg
800 J/kg
600 J/kg
400 J/kg
200 J/kg
70 dBZ
65 dBZ
60 dBZ
55 dBZ
50 dBZ
45 dBZ
40 dBZ
35 dBZ
30 dBZ
25 dBZ
20 dBZ
15 dBZ
10 dBZ
5 dBZ
-1 K
-2 K
-3 K
-4 K
-5 K
-6 K
-7 K
-8 K
-9 K
950 m²/s²
900 m²/s²
850 m²/s²
800 m²/s²
750 m²/s²
700 m²/s²
650 m²/s²
600 m²/s²
550 m²/s²
500 m²/s²
450 m²/s²
400 m²/s²
350 m²/s²
300 m²/s²
250 m²/s²
200 m²/s²
150 m²/s²
100 m²/s²
46 m/s
44 m/s
42 m/s
40 m/s
38 m/s
36 m/s
34 m/s
32 m/s
30 m/s
28 m/s
26 m/s
24 m/s
22 m/s
20 m/s
16 m/s
12 m/s
8 m/s
4 m/s
30 m/s
28 m/s
26 m/s
24 m/s
22 m/s
20 m/s
18 m/s
16 m/s
14 m/s
12 m/s
10 m/s
8 m/s
6 m/s
4 m/s
2 m/s
3.0
2.8
2.6
2.4
2.2
2.0
1.8
1.6
1.4
1.2
1.0
0.8
0.6
0.4
0.2
15
14
13
12
11
10
9
8
7
6
5
4
3
2
1
90%
80%
70%
60%